Terminal Aerodrome Forecast
Issued by NWS Quad Cities IA IL

Home | Current Version | Previous Version | Text Only | Print | Product List | Glossary On
Versions: 1 2 3 4 5 6 7 8 9 10 11 12 13 14 15 16 17 18 19 20 21 22 23 24 25 26 27 28 29 30 31 32 33 34 35 36 37 38 39 40
040
FTUS43 KDVN 281352 AAA
TAFMLI
TAF AMD
KMLI 281352Z 2814/2912 01004KT 4SM -DZ BR OVC008
     FM282100 06007KT P6SM BKN025
     FM290200 08008KT P6SM SCT025 BKN100=

USA.gov is the U.S. government's official web portal to all federal, state and local government web resources and services.